FW7007 Weather Reports


Display with metric or nautical units.
time (UTC)temp
F
wind
direction
speed
MPH
gust
MPH
rain 1hr
in
rain 24hr
in
rain mn
in
humidity
%
barometer
mb
20260906111112 71 149 0.0 0.0 0.00 0.00 0.00 99 1014.8
20260906110612 72 149 0.0 0.0 0.00 0.00 0.00 99 1014.8
20260906110106 72 149 0.0 0.0 0.00 0.00 0.00 99 1014.4
20260906105601 72 148 0.0 0.0 0.00 0.00 0.00 99 1014.7
20260906105057 72 148 0.0 0.0 0.00 0.00 0.00 99 1014.7
20260906104555 72 148 0.0 0.0 0.00 0.00 0.00 99 1014.4
20260906104049 72 148 0.0 0.0 0.00 0.00 0.00 99 1014.3
20260906103547 72 148 0.0 0.0 0.00 0.00 0.00 99 1014.5
20260906103043 72 148 0.0 0.0 0.00 0.00 0.00 99 1014.4
20260906102543 72 148 0.0 0.0 0.00 0.00 0.00 99 1014.4
20260906102038 72 148 0.0 0.0 0.00 0.00 0.00 99 1014.3
20260906101533 72 148 0.0 0.0 0.00 0.00 0.00 99 1014.4
20260906101028 72 148 0.0 0.0 0.00 0.00 0.00 99 1014.5
20260906100523 72 148 0.0 0.0 0.00 0.00 0.00 99 1014.4
20260906100024 72 148 0.0 0.0 0.00 0.00 0.00 99 1014.5
20260906095518 72 148 0.0 0.0 0.00 0.00 0.00 99 1014.3
20260906095014 72 148 0.0 0.0 0.00 0.00 0.00 99 1014.4
20260906094512 72 148 0.0 0.0 0.00 0.00 0.00 99 1014.1
20260906094009 72 148 0.0 0.0 0.00 0.00 0.00 99 1014.1
20260906093505 72 148 0.0 0.0 0.00 0.00 0.00 99 1014.1
20260906092959 72 148 0.0 0.0 0.00 0.00 0.00 99 1014.2
20260906092459 72 148 0.0 0.0 0.00 0.00 0.00 99 1014.2
20260906091954 73 148 0.0 0.0 0.00 0.00 0.00 99 1014.2
20260906091445 73 148 0.0 0.0 0.00 0.00 0.00 99 1014.3
20260906090941 73 148 0.0 0.0 0.00 0.00 0.00 99 1014.1
20260906090436 73 148 0.0 0.0 0.00 0.00 0.00 99 1014.0
20260906085935 73 148 0.0 0.0 0.00 0.00 0.00 99 1014.1
20260906085435 73 148 0.0 0.0 0.00 0.00 0.00 99 1014.1
20260906084934 73 148 0.0 0.0 0.00 0.00 0.00 99 1013.9
20260906084429 73 147 0.0 0.0 0.00 0.00 0.00 99 1014.2
20260906083928 73 144 0.0 0.0 0.00 0.00 0.00 99 1014.1
20260906083424 73 147 0.0 0.0 0.00 0.00 0.00 99 1014.3
20260906082923 73 141 0.0 0.0 0.00 0.00 0.00 99 1014.3
20260906082419 73 153 0.0 0.0 0.00 0.00 0.00 99 1014.3
20260906081914 73 155 0.0 0.0 0.00 0.00 0.00 99 1013.9
20260906081409 73 151 0.0 0.0 0.00 0.00 0.00 99 1014.2
20260906080906 73 150 0.0 0.0 0.00 0.00 0.00 99 1014.2
20260906080402 73 149 0.0 0.0 0.00 0.00 0.00 99 1014.2
20260906075901 73 170 0.0 0.0 0.00 0.00 0.00 99 1014.5
20260906075356 73 165 0.0 0.0 0.00 0.00 0.00 99 1014.2
20260906074852 73 120 0.0 0.0 0.00 0.00 0.00 99 1014.4
20260906074351 73 170 0.0 0.0 0.00 0.00 0.00 99 1014.5
20260906073850 73 170 0.0 0.0 0.00 0.00 0.00 99 1014.6
20260906073345 73 168 0.0 0.0 0.00 0.00 0.00 99 1014.7
20260906072842 73 168 0.0 0.0 0.00 0.00 0.00 99 1014.5
20260906072337 73 180 0.0 0.0 0.00 0.00 0.00 99 1014.5
20260906071833 73 176 0.0 0.0 0.00 0.00 0.00 99 1014.1
20260906071328 73 182 0.0 0.0 0.00 0.00 0.00 99 1014.5
20260906070824 73 184 0.0 0.0 0.00 0.00 0.00 99 1014.1
20260906070319 74 182 0.0 0.0 0.00 0.00 0.00 99 1014.1
20260906065814 74 198 0.0 0.0 0.00 0.00 0.00 99 1013.7
20260906065309 74 198 0.0 0.0 0.00 0.00 0.00 99 1013.8
20260906064805 74 198 0.0 0.0 0.00 0.00 0.00 99 1013.9
20260906064301 74 197 0.0 0.0 0.00 0.00 0.00 99 1013.8
20260906063755 74 197 0.0 0.0 0.00 0.00 0.00 99 1013.9
20260906063251 74 197 0.0 0.0 0.00 0.00 0.00 99 1014.1
20260906062745 74 197 0.0 0.0 0.00 0.00 0.00 99 1014.0
20260906062239 74 197 0.0 0.0 0.00 0.00 0.00 99 1014.1
20260906061735 74 198 0.0 0.0 0.00 0.00 0.00 99 1014.3
20260906061231 74 206 0.0 0.0 0.00 0.00 0.00 99 1014.2
20260906060726 74 206 0.0 0.0 0.00 0.00 0.00 99 1014.3
20260906060224 74 206 0.0 0.0 0.00 0.00 0.00 99 1014.2
20260906055719 74 206 0.0 0.0 0.00 0.00 0.00 99 1014.4
20260906055214 74 205 0.0 0.0 0.00 0.00 0.00 99 1014.6
20260906054709 74 206 0.0 0.0 0.00 0.00 0.00 99 1014.4
20260906054204 74 206 0.0 0.0 0.00 0.00 0.00 99 1014.6
20260906053701 74 206 0.0 0.0 0.00 0.00 0.00 99 1014.5
20260906053155 74 213 0.0 0.0 0.00 0.00 0.00 99 1014.8
20260906052645 74 162 0.0 0.0 0.00 0.00 0.00 99 1014.8
20260906052142 74 162 0.0 0.0 0.00 0.00 0.00 99 1014.8
20260906051638 74 162 0.0 0.0 0.00 0.00 0.00 99 1014.8
20260906051137 74 161 0.0 0.0 0.00 0.00 0.00 99 1014.4
20260906050633 74 168 0.0 0.0 0.00 0.00 0.00 99 1014.4
20260906050128 74 168 0.0 0.0 0.00 0.00 0.00 99 1014.7
20260906045626 74 168 0.0 0.0 0.00 0.00 0.00 99 1014.7
20260906045122 74 168 0.0 0.0 0.00 0.00 0.00 99 1014.8
20260906044618 74 168 0.0 0.0 0.00 0.00 0.00 99 1015.1
20260906044113 74 168 0.0 0.0 0.00 0.00 0.00 99 1015.1
20260906043609 74 168 0.0 0.0 0.00 0.00 0.00 99 1015.0
20260906043104 74 168 0.0 0.0 0.00 0.00 0.00 99 1015.1
20260906042603 74 169 0.0 0.0 0.00 0.00 0.00 99 1014.9
20260906042058 74 168 0.0 0.0 0.00 0.00 0.00 99 1015.1
20260906041554 74 168 0.0 0.0 0.00 0.00 0.00 99 1015.2
20260906041049 74 168 0.0 0.0 0.00 0.00 0.00 99 1015.2
20260906040543 74 168 0.0 0.0 0.00 0.00 0.00 99 1015.1
20260906040034 74 168 0.0 0.0 0.00 0.06 0.06 99 1015.3
20260906035528 75 168 0.0 0.0 0.00 0.06 0.06 99 1015.2
20260906035025 75 168 0.0 0.0 0.00 0.06 0.06 99 1015.2
20260906034524 74 168 0.0 0.0 0.00 0.06 0.06 99 1015.2
20260906034020 74 168 0.0 0.0 0.00 0.06 0.06 99 1015.3
20260906033515 75 168 0.0 0.0 0.00 0.06 0.06 99 1015.0
20260906033010 75 168 0.0 0.0 0.00 0.06 0.06 99 1015.1
20260906032507 75 167 0.0 0.0 0.00 0.06 0.06 99 1015.0
20260906032007 75 167 0.0 0.0 0.00 0.06 0.06 99 1015.1
20260906031503 75 169 0.0 0.0 0.00 0.06 0.06 99 1015.1
20260906030957 75 168 0.0 0.0 0.00 0.06 0.06 99 1015.3
20260906030451 75 168 0.0 0.0 0.00 0.06 0.06 99 1015.1
20260906025946 75 168 0.0 0.0 0.00 0.06 0.06 99 1015.2
20260906025440 75 168 0.0 0.0 0.00 0.06 0.06 99 1014.9
20260906024938 75 169 0.0 0.0 0.00 0.06 0.06 99 1014.8
20260906024433 75 169 0.0 0.0 0.00 0.06 0.06 99 1014.6
20260906023933 75 169 0.0 0.0 0.00 0.06 0.06 99 1014.7
20260906023429 75 169 0.0 0.0 0.00 0.06 0.06 99 1014.6
20260906022924 75 169 0.0 0.0 0.00 0.06 0.06 99 1014.7
20260906022419 75 169 0.0 0.0 0.00 0.06 0.06 99 1014.2
20260906021915 75 169 0.0 0.0 0.00 0.06 0.06 99 1014.5
20260906021414 76 169 0.0 0.0 0.00 0.06 0.06 99 1014.6
20260906020908 76 169 0.0 0.0 0.00 0.06 0.06 99 1014.6
20260906020403 75 169 0.0 0.0 0.00 0.06 0.06 99 1014.4
20260906015857 76 169 0.0 0.0 0.00 0.06 0.06 99 1014.4
20260906015356 76 169 0.0 0.0 0.00 0.06 0.06 99 1014.2
20260906014851 76 169 0.0 0.0 0.00 0.06 0.06 99 1014.5
20260906014351 76 169 0.0 0.0 0.00 0.06 0.06 99 1014.2
20260906013847 76 169 0.0 0.0 0.00 0.06 0.06 99 1014.4
20260906013342 76 169 0.0 0.0 0.00 0.06 0.06 99 1014.3
20260906012838 76 169 0.0 0.0 0.00 0.06 0.06 99 1014.3
20260906012333 76 169 0.0 0.0 0.00 0.06 0.06 98 1014.4
20260906011832 76 169 0.0 0.0 0.00 0.06 0.06 98 1014.0
20260906011327 76 169 0.0 0.0 0.00 0.06 0.06 98 1014.4
20260906010824 77 169 0.0 0.0 0.00 0.06 0.06 98 1014.2
20260906010319 77 169 0.0 0.0 0.00 0.06 0.06 98 1014.2
20260906005814 77 169 0.0 0.0 0.00 0.06 0.06 97 1014.3
20260906005313 77 169 0.0 0.0 0.00 0.06 0.06 97 1014.0
20260906004807 77 169 0.0 0.0 0.00 0.06 0.06 97 1014.4
20260906004307 77 169 0.0 0.0 0.00 0.06 0.06 97 1014.1
20260906003802 77 169 0.0 0.0 0.00 0.06 0.06 96 1014.1
20260906003257 77 169 0.0 0.0 0.00 0.06 0.06 96 1014.2
20260906002752 77 169 0.0 0.0 0.00 0.06 0.06 96 1013.9
20260906002246 77 169 0.0 0.0 0.00 0.06 0.06 95 1014.0
20260906001742 78 169 0.0 0.0 0.00 0.06 0.06 95 1014.0
20260906001237 78 169 0.0 0.0 0.00 0.06 0.06 94 1013.9
20260906000733 78 168 0.0 0.0 0.00 0.06 0.06 94 1014.1
20260906000234 78 169 0.0 0.0 0.00 0.06 0.06 93 1014.5
20260905235732 78 169 0.0 0.0 0.00 0.06 0.06 93 1014.3
20260905235227 79 167 0.0 0.0 0.00 0.06 0.06 92 1014.1
20260905234723 79 166 0.0 0.0 0.00 0.06 0.06 93 1014.3
20260905234218 79 211 0.0 0.0 0.00 0.06 0.06 93 1014.2
20260905233713 79 211 0.0 0.0 0.00 0.06 0.06 93 1014.2
20260905233212 79 211 0.0 0.0 0.00 0.06 0.06 92 1013.8
20260905232707 80 211 0.0 0.0 0.00 0.06 0.06 92 1014.0
20260905232203 80 212 0.0 0.0 0.00 0.06 0.06 91 1014.2
20260905231658 80 212 0.0 0.0 0.00 0.06 0.06 90 1014.1
20260905231154 80 213 0.0 0.0 0.00 0.06 0.06 89 1014.2
20260905230650 81 213 0.0 0.0 0.00 0.06 0.06 89 1014.0
20260905230148 81 213 0.0 0.0 0.00 0.06 0.06 88 1014.0
20260905225647 81 218 0.0 0.0 0.00 0.06 0.06 87 1014.1
20260905225142 81 211 0.0 0.0 0.00 0.06 0.06 88 1014.3
20260905224641 82 167 0.0 0.0 0.00 0.06 0.06 87 1014.0
20260905224136 82 149 0.0 0.0 0.00 0.06 0.06 84 1014.1
20260905223633 82 199 0.0 0.0 0.00 0.06 0.06 88 1013.8
20260905223129 82 203 0.0 0.0 0.00 0.06 0.06 86 1014.1
20260905222625 82 115 0.0 0.0 0.00 0.06 0.06 85 1014.0
20260905222120 82 153 0.0 0.0 0.00 0.06 0.06 85 1013.8
20260905221615 82 172 0.0 0.0 0.00 0.06 0.06 85 1014.1
20260905221112 82 168 0.0 0.0 0.00 0.06 0.06 84 1014.1
20260905220606 82 187 0.0 0.0 0.00 0.06 0.06 83 1014.0
20260905215602 82 187 0.0 0.0 0.00 0.06 0.06 83 1014.1
20260905215052 82 187 0.0 0.0 0.00 0.06 0.06 82 1014.3
20260905214549 82 207 0.0 0.0 0.00 0.06 0.06 81 1014.3
20260905214049 81 208 0.0 0.0 0.00 0.06 0.06 84 1014.4
20260905213543 82 209 0.0 0.0 0.00 0.06 0.06 83 1014.3
20260905213039 82 209 0.0 0.0 0.00 0.06 0.06 81 1014.5
20260905212534 82 197 0.0 0.0 0.00 0.06 0.06 85 1014.5
20260905212034 81 174 0.0 0.0 0.00 0.06 0.06 83 1014.7
20260905211529 81 207 0.0 0.0 0.00 0.06 0.06 85 1014.6
20260905211025 81 220 0.0 0.0 0.00 0.06 0.06 83 1014.5
20260905210520 82 49 0.0 0.0 0.00 0.06 0.06 83 1014.8
20260905210020 82 143 0.0 0.0 0.00 0.06 0.06 85 1014.5
20260905205514 82 71 0.0 2.0 0.00 0.06 0.06 84 1014.3
20260905205013 82 181 0.0 0.0 0.00 0.06 0.06 85 1014.3
20260905204508 82 215 0.0 0.0 0.00 0.06 0.06 84 1014.5
20260905204009 82 191 0.0 0.0 0.00 0.06 0.06 84 1014.5
20260905203503 82 220 0.0 2.0 0.00 0.06 0.06 84 1014.8
20260905202959 82 217 0.0 0.0 0.00 0.06 0.06 86 1014.8
20260905202454 82 126 0.0 0.0 0.00 0.06 0.06 85 1014.8
20260905201950 82 211 0.0 0.0 0.00 0.06 0.06 86 1014.8
20260905201444 82 188 0.0 0.0 0.00 0.06 0.06 85 1015.0
20260905200944 83 253 0.0 1.0 0.00 0.06 0.06 87 1015.2
20260905200440 83 210 0.0 0.0 0.00 0.06 0.06 86 1015.2
20260905195939 82 196 0.0 0.0 0.00 0.06 0.06 87 1015.2
20260905195434 82 191 0.0 0.0 0.00 0.06 0.06 87 1015.1
20260905194930 81 304 0.0 1.0 0.00 0.06 0.06 88 1015.2
20260905194428 80 202 0.0 0.0 0.00 0.06 0.06 90 1015.2
20260905193923 80 17 1.0 2.0 0.00 0.06 0.06 90 1015.5
20260905193418 79 218 0.0 0.0 0.00 0.06 0.06 92 1015.2
20260905192913 79 180 0.0 0.0 0.00 0.06 0.06 95 1015.1
20260905192408 77 200 0.0 0.0 0.00 0.06 0.06 97 1015.5
20260905191909 76 199 0.0 0.0 0.00 0.06 0.06 97 1015.5
20260905191408 76 189 0.0 0.0 0.00 0.06 0.06 99 1015.5
20260905190903 75 170 0.0 0.0 0.00 0.06 0.06 99 1016.0
20260905190400 75 170 0.0 0.0 0.00 0.06 0.06 99 1015.8
20260905185859 75 169 0.0 0.0 0.00 0.06 0.06 99 1015.9
20260905185355 75 169 0.0 0.0 0.00 0.06 0.06 99 1016.2
20260905184854 75 171 0.0 0.0 0.00 0.06 0.06 99 1015.9
20260905184353 75 175 0.0 0.0 0.00 0.06 0.06 99 1015.9
20260905183846 75 174 0.0 0.0 0.00 0.06 0.06 99 1015.4
20260905183341 74 192 0.0 0.0 0.00 0.06 0.06 99 1016.0
20260905182836 74 193 0.0 0.0 0.00 0.06 0.06 99 1015.4
20260905182335 75 171 0.0 0.0 0.00 0.06 0.06 99 1015.4
20260905181831 75 204 0.0 0.0 0.00 0.06 0.06 98 1015.9
20260905181330 75 159 0.0 0.0 0.00 0.06 0.06 96 1016.2
20260905180829 75 135 0.0 0.0 0.12 0.06 0.06 95 1016.5
20260905180325 77 226 0.0 1.0 0.35 0.06 0.06 93 1016.6
20260905175819 80 153 0.0 0.0 0.24 0.04 0.04 85 1016.5
20260905175314 82 187 0.0 2.0 0.00 0.00 0.00 75 1016.7
20260905174809 84 270 4.0 6.0 0.00 0.00 0.00 70 1016.4
20260905174305 85 212 0.0 2.0 0.00 0.00 0.00 71 1016.5
20260905173801 86 165 0.0 0.0 0.00 0.00 0.00 71 1016.5
20260905173257 87 155 0.0 1.0 0.00 0.00 0.00 70 1016.3
20260905172756 88 117 0.0 1.0 0.00 0.00 0.00 69 1016.3
20260905172254 91 110 2.0 5.0 0.00 0.00 0.00 68 1016.2
20260905171751 93 203 0.0 1.0 0.00 0.00 0.00 68 1016.1
20260905171247 92 235 0.0 0.0 0.00 0.00 0.00 67 1016.0
20260905170743 92 135 0.0 0.0 0.00 0.00 0.00 67 1016.0
20260905170239 91 146 0.0 0.0 0.00 0.00 0.00 68 1016.0
20260905165738 91 189 0.0 2.0 0.00 0.00 0.00 69 1016.0
20260905165234 90 55 0.0 1.0 0.00 0.00 0.00 69 1016.1
20260905164733 91 179 2.0 3.0 0.00 0.00 0.00 70 1016.5
20260905164228 90 244 0.0 0.0 0.00 0.00 0.00 70 1016.8
20260905163725 89 180 0.0 2.0 0.00 0.00 0.00 73 1016.7
20260905163220 89 181 0.0 2.0 0.00 0.00 0.00 72 1016.6
20260905162716 89 149 0.0 0.0 0.00 0.00 0.00 71 1016.6
20260905162216 88 208 0.0 0.0 0.00 0.00 0.00 75 1016.8
20260905161711 89 199 0.0 0.0 0.00 0.00 0.00 74 1016.6
20260905161209 87 195 0.0 0.0 0.00 0.00 0.00 75 1016.5
20260905160708 87 190 0.0 0.0 0.00 0.00 0.00 76 1016.7
20260905160207 86 227 1.0 2.0 0.00 0.00 0.00 78 1016.6
20260905155702 86 301 1.0 2.0 0.00 0.00 0.00 78 1016.5
20260905155202 85 181 0.0 0.0 0.00 0.00 0.00 81 1016.6
20260905154655 84 225 0.0 0.0 0.00 0.00 0.00 81 1016.5
20260905154151 85 223 0.0 0.0 0.00 0.00 0.00 82 1016.5
20260905153646 84 208 0.0 0.0 0.00 0.00 0.00 83 1016.6
20260905153137 84 209 0.0 0.0 0.00 0.00 0.00 83 1016.6
20260905152631 83 207 0.0 0.0 0.00 0.00 0.00 83 1016.9
20260905152126 84 176 0.0 0.0 0.00 0.00 0.00 84 1016.7
20260905151621 84 203 0.0 0.0 0.00 0.00 0.00 82 1017.0
20260905151116 84 159 0.0 0.0 0.00 0.00 0.00 82 1016.9
20260905150612 84 106 0.0 0.0 0.00 0.00 0.00 82 1016.8
20260905150110 84 140 0.0 0.0 0.00 0.00 0.00 82 1017.0
20260905145608 83 205 0.0 0.0 0.00 0.00 0.00 83 1017.0
20260905145102 83 205 0.0 0.0 0.00 0.00 0.00 83 1017.1
20260905144557 83 145 0.0 0.0 0.00 0.00 0.00 83 1017.1
20260905144056 82 116 0.0 0.0 0.00 0.00 0.00 83 1017.0
20260905143555 82 171 0.0 0.0 0.00 0.00 0.00 82 1017.2
20260905143050 82 122 0.0 0.0 0.00 0.00 0.00 82 1017.1
20260905142550 81 141 0.0 0.0 0.00 0.00 0.00 84 1017.2
20260905142049 80 166 0.0 0.0 0.00 0.00 0.00 89 1017.0
20260905141544 80 165 0.0 0.0 0.00 0.00 0.00 89 1017.2
20260905141041 80 165 0.0 0.0 0.00 0.00 0.00 89 1017.0
20260905140536 79 165 0.0 0.0 0.00 0.00 0.00 89 1017.3
20260905140035 79 134 0.0 0.0 0.00 0.00 0.00 90 1017.2
20260905135530 78 142 0.0 0.0 0.00 0.00 0.00 90 1017.2
20260905135025 78 170 0.0 0.0 0.00 0.00 0.00 92 1017.0
20260905134520 78 171 0.0 0.0 0.00 0.00 0.00 93 1017.2
20260905134019 78 170 0.0 0.0 0.00 0.00 0.00 93 1017.3
20260905133514 78 170 0.0 0.0 0.00 0.00 0.00 93 1017.4
20260905133014 78 171 0.0 0.0 0.00 0.00 0.00 92 1017.2
20260905132508 78 171 0.0 0.0 0.00 0.00 0.00 93 1017.6
20260905132009 78 171 0.0 0.0 0.00 0.00 0.00 93 1017.5
20260905131504 77 170 0.0 0.0 0.00 0.00 0.00 93 1017.9
20260905131000 77 173 0.0 0.0 0.00 0.00 0.00 93 1017.5
20260905130458 77 174 0.0 0.0 0.00 0.00 0.00 93 1017.5
20260905125958 77 186 0.0 0.0 0.00 0.00 0.00 95 1017.5
20260905125453 76 186 0.0 0.0 0.00 0.00 0.00 96 1017.7
20260905124949 76 186 0.0 0.0 0.00 0.00 0.00 96 1017.4
20260905124445 76 186 0.0 0.0 0.00 0.00 0.00 97 1017.3
20260905123940 75 187 0.0 0.0 0.00 0.00 0.00 97 1017.6
20260905123437 75 187 0.0 0.0 0.00 0.00 0.00 99 1017.4
20260905122937 74 187 0.0 0.0 0.00 0.00 0.00 99 1017.4
20260905122437 74 187 0.0 0.0 0.00 0.00 0.00 99 1017.4
20260905121932 73 187 0.0 0.0 0.00 0.00 0.00 99 1017.1
20260905121428 73 187 0.0 0.0 0.00 0.00 0.00 99 1017.3
20260905120926 73 187 0.0 0.0 0.00 0.00 0.00 99 1017.3
20260905120421 73 187 0.0 0.0 0.00 0.00 0.00 99 1017.2
20260905115916 73 187 0.0 0.0 0.00 0.00 0.00 99 1017.0
20260905115415 73 187 0.0 0.0 0.00 0.00 0.00 99 1016.9
20260905114910 73 187 0.0 0.0 0.00 0.00 0.00 99 1016.9
20260905114404 73 187 0.0 0.0 0.00 0.00 0.00 99 1016.8
20260905113904 73 187 0.0 0.0 0.00 0.00 0.00 99 1016.9
20260905113359 73 187 0.0 0.0 0.00 0.00 0.00 99 1016.9
20260905112854 73 187 0.0 0.0 0.00 0.00 0.00 99 1016.7
20260905112349 73 187 0.0 0.0 0.00 0.00 0.00 99 1016.7
20260905111844 73 187 0.0 0.0 0.00 0.00 0.00 99 1016.7